Orbital Elements at Epoch 2459000.5 (2020-May-31.0) TDB
Reference: JPL 11 (heliocentric ecliptic J2000)
Element | Value | Uncertainty (1-sigma) | Units |
e | .1672813696661161 | 4.9626e-08 | |
a | 2.336897213047048 | 1.4088e-08 | au |
q | 1.945977846479608 | 1.2183e-07 | au |
i | 5.115038587678417 | 7.9999e-06 | deg |
node | 334.4581172053773 | 5.893e-05 | deg |
peri | 89.37783515836604 | 7.0969e-05 | deg |
M | 17.29699432370708 | 3.4486e-05 | deg |
tp | 2458937.805999220335 (2020-Mar-29.30599922) | 0.00012474 | TDB |
period | 1304.84174639205 3.57 | 1.1799e-05 3.23e-08 | d yr |
n | .2758955260248358 | 2.4949e-09 | deg/d |
Q | 2.727816579614488 | 1.6445e-08 | au |
|
| | Orbit Determination Parameters
Additional Information
|